When you browse on this site, cookies collect data to enhance your experience and personalize the content and advertising you see.
Visit our Privacy Policy to learn more. By continuing to use the site, you agree to this use of cookies and data.
  • In United Kingdom
  • List of Countries
  • For 7 days
  • Water Temperature
  • Weather Map
  • Weather Widgets
  • user-avatar
    Login

    Hourly Weather Canberra

    Today, 3 June, Wednesday

    Time Temperature Precipitation Wind Pressure Humidity
    00:00 +3°C° 0 mm 3 mps 709 mmHg 92%
    01:00 +3°C° 0 mm 3 mps 709 mmHg 91%
    02:00 +4°C° 0 mm 3 mps 709 mmHg 90%
    03:00 +4°C° 0 mm 3 mps 710 mmHg 90%
    04:00 +5°C° 0 mm 4 mps 710 mmHg 90%
    05:00 +4°C° 0 mm 3 mps 710 mmHg 91%
    06:00 +4°C° 0 mm 3 mps 711 mmHg 93%
    07:00 +3°C° 0 mm 3 mps 711 mmHg 95%
    08:00 +6°C° 0 mm 2 mps 712 mmHg 85%
    09:00 +8°C° 0 mm 2 mps 713 mmHg 75%
    10:00 +10°C° 0 mm 2 mps 714 mmHg 65%
    11:00 +10°C° 0 mm 3 mps 714 mmHg 59%
    12:00 +11°C° 0 mm 3 mps 714 mmHg 52%
    13:00 +12°C° 0 mm 3 mps 714 mmHg 46%
    14:00 +11°C° 0 mm 3 mps 714 mmHg 49%
    15:00 +11°C° 0 mm 3 mps 715 mmHg 51%
    16:00 +10°C° 0 mm 3 mps 715 mmHg 55%
    17:00 +8°C° 0 mm 3 mps 716 mmHg 62%
    18:00 +5°C° 0 mm 3 mps 716 mmHg 69%
    19:00 +4°C° 0 mm 2 mps 717 mmHg 75%
    20:00 +4°C° 0 mm 2 mps 717 mmHg 78%
    21:00 +3°C° 0 mm 2 mps 717 mmHg 80%
    22:00 +3°C° 0 mm 2 mps 718 mmHg 83%
    23:00 +2°C° 0 mm 2 mps 718 mmHg 85%

    Tomorrow, 4 June, Thursday

    Time Temperature Precipitation Wind Pressure Humidity
    00:00 +2°C° 0 mm 2 mps 718 mmHg 88%
    01:00 +1°C° 0 mm 2 mps 718 mmHg 90%
    02:00 +2°C° 0 mm 1 mps 718 mmHg 90%
    03:00 +2°C° 0 mm 1 mps 718 mmHg 91%
    04:00 +1°C° 0 mm 1 mps 718 mmHg 91%
    05:00 +1°C° 0 mm 1 mps 718 mmHg 90%
    06:00 +1°C° 0 mm 1 mps 719 mmHg 90%
    07:00 +1°C° 0 mm 1 mps 719 mmHg 89%
    08:00 +4°C° 0 mm 1 mps 719 mmHg 77%
    09:00 +7°C° 0 mm 1 mps 720 mmHg 64%
    10:00 +9°C° 0 mm 0 mps 720 mmHg 51%
    11:00 +11°C° 0 mm 1 mps 720 mmHg 47%
    12:00 +12°C° 0 mm 1 mps 719 mmHg 44%
    13:00 +13°C° 0 mm 1 mps 719 mmHg 40%
    14:00 +13°C° 0 mm 1 mps 718 mmHg 46%
    15:00 +12°C° 0 mm 1 mps 718 mmHg 52%
    16:00 +11°C° 0 mm 1 mps 718 mmHg 58%
    17:00 +9°C° 0 mm 1 mps 718 mmHg 67%
    18:00 +6°C° 0 mm 0 mps 718 mmHg 76%
    19:00 +4°C° 0 mm 0 mps 718 mmHg 85%
    20:00 +3°C° 0 mm 0 mps 718 mmHg 86%
    21:00 +3°C° 0 mm 0 mps 718 mmHg 87%
    22:00 +3°C° 0 mm 0 mps 718 mmHg 88%
    23:00 +2°C° 0 mm 0 mps 718 mmHg 89%

    Day after tomorrow, 5 June, Friday

    Time Temperature Precipitation Wind Pressure Humidity
    00:00 +2°C° 0 mm 0 mps 718 mmHg 89%
    01:00 +2°C° 0 mm 0 mps 718 mmHg 90%
    02:00 +2°C° 0 mm 0 mps 717 mmHg 90%
    03:00 +1°C° 0 mm 0 mps 717 mmHg 91%
    04:00 +1°C° 0 mm 0 mps 717 mmHg 91%
    05:00 +1°C° 0 mm 0 mps 717 mmHg 91%
    06:00 +1°C° 0 mm 0 mps 717 mmHg 92%
    07:00 0°C° 0 mm 0 mps 717 mmHg 92%
    08:00 +4°C° 0 mm 1 mps 717 mmHg 83%
    09:00 +6°C° 0 mm 1 mps 717 mmHg 75%
    10:00 +9°C° 0 mm 1 mps 717 mmHg 66%
    11:00 +10°C° 0 mm 1 mps 717 mmHg 60%
    12:00 +12°C° 0 mm 2 mps 716 mmHg 55%
    13:00 +13°C° 0 mm 2 mps 716 mmHg 49%
    14:00 +13°C° 0 mm 2 mps 715 mmHg 53%
    15:00 +12°C° 0 mm 2 mps 715 mmHg 57%
    16:00 +10°C° 0 mm 2 mps 715 mmHg 61%
    17:00 +9°C° 0 mm 1 mps 715 mmHg 70%
    18:00 +7°C° 0 mm 1 mps 715 mmHg 79%
    19:00 +4°C° 0 mm 0 mps 715 mmHg 89%
    20:00 +3°C° 0 mm 0 mps 715 mmHg 89%
    21:00 +3°C° 0 mm 0 mps 716 mmHg 89%
    22:00 +2°C° 0 mm 0 mps 716 mmHg 89%
    23:00 +2°C° 0 mm 0 mps 715 mmHg 89%

    6 June, Saturday

    Time Temperature Precipitation Wind Pressure Humidity
    00:00 +2°C° 0 mm 0 mps 715 mmHg 89%
    01:00 +2°C° 0 mm 0 mps 715 mmHg 89%
    02:00 +1°C° 0 mm 0 mps 715 mmHg 90%
    03:00 +1°C° 0 mm 0 mps 714 mmHg 90%
    04:00 +1°C° 0 mm 0 mps 714 mmHg 90%
    05:00 +1°C° 0 mm 0 mps 714 mmHg 90%
    06:00 0°C° 0 mm 0 mps 714 mmHg 90%
    07:00 0°C° 0 mm 0 mps 714 mmHg 91%
    08:00 +3°C° 0 mm 0 mps 715 mmHg 81%
    09:00 +5°C° 0 mm 0 mps 715 mmHg 71%
    10:00 +8°C° 0 mm 0 mps 715 mmHg 62%
    11:00 +10°C° 0 mm 1 mps 714 mmHg 57%
    12:00 +12°C° 0 mm 1 mps 713 mmHg 53%
    13:00 +13°C° 0 mm 2 mps 713 mmHg 48%
    14:00 +12°C° 0 mm 2 mps 713 mmHg 52%
    15:00 +10°C° 0 mm 2 mps 712 mmHg 57%
    16:00 +10°C° 0 mm 2 mps 712 mmHg 61%
    17:00 +8°C° 0 mm 2 mps 712 mmHg 69%
    18:00 +7°C° 0 mm 1 mps 712 mmHg 78%
    19:00 +5°C° 0 mm 1 mps 712 mmHg 86%
    20:00 +4°C° 0 mm 1 mps 712 mmHg 87%
    21:00 +3°C° 0 mm 0 mps 712 mmHg 87%
    22:00 +2°C° 0 mm 0 mps 712 mmHg 88%
    23:00 +2°C° 0 mm 0 mps 712 mmHg 88%

    7 June, Sunday

    Time Temperature Precipitation Wind Pressure Humidity
    00:00 +2°C° 0 mm 0 mps 712 mmHg 87%
    01:00 +2°C° 0 mm 0 mps 712 mmHg 87%
    02:00 +2°C° 0 mm 0 mps 711 mmHg 86%
    03:00 +2°C° 0 mm 0 mps 711 mmHg 85%
    04:00 +2°C° 0 mm 0 mps 711 mmHg 85%
    05:00 +2°C° 0 mm 0 mps 712 mmHg 85%
    06:00 +2°C° 0 mm 0 mps 712 mmHg 86%
    07:00 +2°C° 0 mm 0 mps 712 mmHg 87%
    08:00 +4°C° 0 mm 0 mps 713 mmHg 80%
    09:00 +5°C° 0 mm 0 mps 713 mmHg 72%
    10:00 +8°C° 0 mm 1 mps 713 mmHg 65%
    11:00 +9°C° 0 mm 1 mps 713 mmHg 64%
    12:00 +10°C° 0 mm 1 mps 713 mmHg 63%
    13:00 +11°C° 0 mm 1 mps 712 mmHg 62%
    14:00 +11°C° 0 mm 1 mps 713 mmHg 64%
    15:00 +10°C° 0 mm 1 mps 713 mmHg 66%
    16:00 +10°C° 0 mm 1 mps 713 mmHg 68%
    17:00 +8°C° 0 mm 1 mps 713 mmHg 73%
    18:00 +7°C° 0 mm 1 mps 714 mmHg 77%
    19:00 +4°C° 0 mm 2 mps 714 mmHg 82%
    20:00 +3°C° 0 mm 2 mps 714 mmHg 83%
    21:00 +2°C° 0 mm 2 mps 715 mmHg 85%
    22:00 +2°C° 0 mm 2 mps 715 mmHg 86%
    23:00 +1°C° 0 mm 2 mps 715 mmHg 87%

    8 June, Monday

    Time Temperature Precipitation Wind Pressure Humidity
    00:00 +1°C° 0 mm 2 mps 715 mmHg 88%
    01:00 +1°C° 0 mm 2 mps 715 mmHg 89%
    02:00 -1°C° 0 mm 2 mps 715 mmHg 90%
    03:00 -1°C° 0 mm 2 mps 715 mmHg 90%
    04:00 -1°C° 0 mm 2 mps 715 mmHg 90%
    05:00 +1°C° 0 mm 1 mps 716 mmHg 90%
    06:00 +1°C° 0 mm 1 mps 716 mmHg 90%
    07:00 +1°C° 0 mm 1 mps 717 mmHg 90%
    08:00 +4°C° 0 mm 1 mps 717 mmHg 80%
    09:00 +7°C° 0 mm 1 mps 718 mmHg 70%
    10:00 +10°C° 0 mm 1 mps 718 mmHg 60%
    11:00 +11°C° 0 mm 1 mps 718 mmHg 56%
    12:00 +13°C° 0 mm 1 mps 718 mmHg 52%
    13:00 +13°C° 0 mm 0 mps 717 mmHg 48%
    14:00 +12°C° 0 mm 0 mps 717 mmHg 52%
    15:00 +12°C° 0 mm 1 mps 717 mmHg 56%
    16:00 +12°C° 0 mm 1 mps 717 mmHg 59%
    17:00 +9°C° 0 mm 1 mps 718 mmHg 68%
    18:00 +7°C° 0 mm 1 mps 718 mmHg 76%
    19:00 +5°C° 0 mm 1 mps 718 mmHg 84%
    20:00 +5°C° 0 mm 1 mps 719 mmHg 87%
    21:00 +4°C° 0 mm 1 mps 719 mmHg 89%
    22:00 +3°C° 0 mm 0 mps 719 mmHg 91%
    23:00 +2°C° 0 mm 0 mps 719 mmHg 92%
    Show more